Regional Weather Roundup
Issued by NWS

Home | Current Version | Previous Version | Graphics & Text | Print | Product List | Glossary Off
Versions: 1 2 3 4 5 6 7 8 9 10 11 12 13 14 15 16 17 18 19 20 21 22 23 24 25 26 27 28 29 30 31 32 33 34 35 36 37 38 39 40 41 42 43 44 45 46 47 48 49 50

000
ASUS43 KMKX 250611
RWRWI

WISCONSIN REGIONAL WEATHER ROUNDUP
NATIONAL WEATHER SERVICE MILWAUKEE/SULLIVAN WI
100 AM CDT MON SEP 25 2017

NOTE: "FAIR" INDICATES FEW OR NO CLOUDS BELOW 12,000 FEET WITH NO
SIGNIFICANT WEATHER AND/OR OBSTRUCTIONS TO VISIBILITY.

WIZ001-002-006>008-014>016-023>028-250700-
NORTHWEST WISCONSIN

CITY           SKY/WX    TMP DP  RH WIND       PRES   REMARKS
SUPERIOR ARPT  CLOUDY    65  65 100 SW6       29.89R
6HR MIN TEMP:  62; 6HR MAX TEMP:  67; 6HR PCP:  0.09;

ASHLAND        CLOUDY    69  63  81 W6        29.88F
6HR MIN TEMP:  69; 6HR MAX TEMP:  78;

HAYWARD        CLOUDY    74  63  68 SW7       29.93R
6HR MIN TEMP:  70; 6HR MAX TEMP:  77; 6HR PCP: TRACE;

SIREN          CLOUDY    67  66  94 SW5       29.92S
6HR MIN TEMP:  67; 6HR MAX TEMP:  80; 6HR PCP:  0.05;

CUMBERLAND     CLOUDY    70  61  73 SW3       29.93S
RICE LAKE      RAIN      71  64  79 SW7       29.95R
6HR MIN TEMP:  71; 6HR MAX TEMP:  78;

CHETEK         CLOUDY    71  65  79 CALM      29.94R
6HR MIN TEMP:  71; 6HR MAX TEMP:  78;

LADYSMITH      CLEAR     71  62  72 S3        29.95R
6HR MIN TEMP:  71; 6HR MAX TEMP:  79;

EAU CLAIRE     CLEAR     71  63  75 S6        29.91F
6HR MIN TEMP:  71; 6HR MAX TEMP:  82;

MENOMONIE      CLOUDY    73  64  73 CALM      29.92S
6HR MIN TEMP:  72; 6HR MAX TEMP:  79;

NEW RICHMOND   RAIN      69  65  86 SW6       29.95R
6HR MIN TEMP:  69; 6HR MAX TEMP:  80;

OSCEOLA        CLOUDY    69  69 100 SW5       29.97R
6HR MIN TEMP:  69; 6HR MAX TEMP:  80;

$$

WIZ003>005-009-010-017-018-250700-
NORTH CENTRAL WISCONSIN

CITY           SKY/WX    TMP DP  RH WIND       PRES   REMARKS
MANITOWISH WTR NOT AVBL
ARBOR VITAE    CLEAR     72  61  67 S9        29.96S
6HR MIN TEMP:  72; 6HR MAX TEMP:  77;

WOODRUFF       CLEAR     72  61  67 S9        29.96S
6HR MIN TEMP:  72; 6HR MAX TEMP:  77;

RHINELANDER    CLEAR     69  60  73 S5        29.99S
6HR MIN TEMP:  69; 6HR MAX TEMP:  77;

EAGLE RIVER    CLEAR     66  58  75 CALM      29.97F
6HR MIN TEMP:  66; 6HR MAX TEMP:  75;

LAND O LAKES   CLEAR     69  60  73 S6        29.98F
6HR MIN TEMP:  69; 6HR MAX TEMP:  74;

PHILLIPS       PTCLDY    71  61  71 S10       29.94S
6HR MIN TEMP:  70; 6HR MAX TEMP:  76;

TOMAHAWK       CLEAR     64  58  83 CALM      29.97F
6HR MIN TEMP:  62; 6HR MAX TEMP:  71;

MEDFORD        CLEAR     65  59  80 S5        29.96F
6HR MIN TEMP:  65; 6HR MAX TEMP:  73;

MERRILL        CLEAR     67  61  80 S3        29.98S
6HR MIN TEMP:  62; 6HR MAX TEMP:  79;

$$

WIZ029-030-035-036-043>047-250700-
CENTRAL WISCONSIN

CITY           SKY/WX    TMP DP  RH WIND       PRES   REMARKS
WAUSAU         CLEAR     67  60  78 SE6       29.96F
6HR MIN TEMP:  66; 6HR MAX TEMP:  79;

MOSINEE        CLEAR     64  59  82 SE5       29.99S
MARSHFIELD     CLEAR     67  59  75 S6        29.96F
6HR MIN TEMP:  66; 6HR MAX TEMP:  78;

STEVENS POINT  CLEAR     64  59  85 CALM      29.98F
6HR MIN TEMP:  62; 6HR MAX TEMP:  77;

WAUPACA        CLEAR     67  64  89 CALM      29.98S
6HR MIN TEMP:  67; 6HR MAX TEMP:  80;

WAUTOMA        CLEAR     62  61  96 CALM      29.99S
6HR MIN TEMP:  62; 6HR MAX TEMP:  76;

WISC RAPIDS    CLEAR     68  60  75 S3        29.98S
6HR MIN TEMP:  67; 6HR MAX TEMP:  79;

CAMP DOUGLAS   CLEAR     65  61  87 S5        29.96S
6HR MIN TEMP:  63; 6HR MAX TEMP:  80;

$$

WIZ011>013-019>022-031-037>040-048>050-250700-
NORTHEAST WISCONSIN

CITY           SKY/WX    TMP DP  RH WIND       PRES   REMARKS
ANTIGO         CLEAR     64  61  91 S6        30.01S
6HR MIN TEMP:  64; 6HR MAX TEMP:  72;

SHAWANO        CLEAR     70  63  79 CALM      29.97F
6HR MIN TEMP:  69; 6HR MAX TEMP:  79;

OCONTO         CLEAR     70  60  70 SW3       29.97F
6HR MIN TEMP:  65; 6HR MAX TEMP:  77;

STURGEON BAY   CLEAR     70  61  73 S7        29.99S
6HR MIN TEMP:  70; 6HR MAX TEMP:  73;

GREEN BAY      CLEAR     70  62  76 S5        29.98S
6HR MIN TEMP:  70; 6HR MAX TEMP:  79;

MANITOWOC      CLEAR     64  62  93 CALM      30.00F
6HR MIN TEMP:  63; 6HR MAX TEMP:  72;

APPLETON       CLEAR     68  55  64 S3        29.98S
CLINTONVILLE   CLEAR     66  61  82 CALM      29.98S
OSHKOSH        CLEAR     67  61  81 S6        29.98F
6HR MIN TEMP:  66; 6HR MAX TEMP:  79;

$$

WIZ032>034-041-042-053>061-250700-
SOUTHWEST WISCONSIN

CITY           SKY/WX    TMP DP  RH WIND       PRES   REMARKS
LA CROSSE      CLEAR     74  65  73 SE6       29.92F
6HR MIN TEMP:  73; 6HR MAX TEMP:  84;

SPARTA         CLEAR     66  61  84 CALM      29.95F
6HR MIN TEMP:  66; 6HR MAX TEMP:  79;

VIROQUA        CLEAR     71  63  74 S6        29.98S
6HR MIN TEMP:  71; 6HR MAX TEMP:  78;

BOSCOBEL       CLEAR     66  64  93 CALM      29.96S
6HR MIN TEMP:  65; 6HR MAX TEMP:  83;

PRAIRIE DU CHI CLEAR     70  61  73 E3        29.95S
6HR MIN TEMP:  70; 6HR MAX TEMP:  83;

PLATTEVILLE    CLEAR     71  63  75 SE6       29.98F
6HR MIN TEMP:  71; 6HR MAX TEMP:  79;

$$

WIZ056-057-062-063-064-067-068-250700-
SOUTH CENTRAL WISCONSIN

CITY           SKY/WX    TMP DP  RH WIND       PRES   REMARKS
REEDSBURG      PTCLDY    66  62  89 CALM      29.97S
6HR MIN TEMP:  64; 6HR MAX TEMP:  79;

BARABOO/DELLS  CLEAR     69  59  69 S5        29.98S
6HR MIN TEMP:  68; 6HR MAX TEMP:  77;

LONE ROCK      CLEAR     64  62  93 CALM      29.97S
6HR MIN TEMP:  64; 6HR MAX TEMP:  81;

MINERAL POINT  CLEAR     70  63  78 SE5       29.99F
MADISON        CLEAR     67  62  84 CALM      29.98F
6HR MIN TEMP:  66; 6HR MAX TEMP:  82;

MIDDLETON      CLEAR     65  62  90 CALM      30.00S
6HR MIN TEMP:  64; 6HR MAX TEMP:  81;

WATERTOWN      CLEAR     67  62  84 CALM      29.99F
6HR MIN TEMP:  66; 6HR MAX TEMP:  78;

MONROE         CLEAR     72  57  60 S7        29.99S
JANESVILLE     CLEAR     68  59  73 CALM      29.98S
$$

WIZ051-052-058>065-066-070>072-250700-
SOUTHEAST WISCONSIN

CITY           SKY/WX    TMP DP  RH WIND       PRES   REMARKS
MILWAUKEE      CLEAR     73  64  73 S3        30.00S
6HR MIN TEMP:  72; 6HR MAX TEMP:  80;

WAUKESHA       CLEAR     68  59  73 CALM      30.02S
MILWAUKEE/TIMM CLEAR     66  57  72 CALM      30.01S
RACINE         CLEAR     69  66  90 S3        30.01F
6HR MIN TEMP:  68; 6HR MAX TEMP:  79;

BURLINGTON     CLEAR     61  61 100 CALM      30.00F
6HR MIN TEMP:  60; 6HR MAX TEMP:  77;

KENOSHA        CLEAR     68  62  81 S3        30.00F
6HR MIN TEMP:  66; 6HR MAX TEMP:  79;

FOND DU LAC    CLEAR     68  59  73 S5        29.99F
6HR MIN TEMP:  68; 6HR MAX TEMP:  80;

SHEBOYGAN      CLEAR     63  62  97 CALM      30.00S
6HR MIN TEMP:  62; 6HR MAX TEMP:  75;

WEST BEND        N/A     61  61 100 CALM      30.01S
JUNEAU         CLEAR     66  60  81 CALM      30.01S
6HR MIN TEMP:  66; 6HR MAX TEMP:  78;

$$

LSZ147-162-250700-
LAKE SUPERIOR

STATION/POSITION TIME  TEMP    WIND        PRES    WAVE
                       AIR SEA DIR/SP/G            HT/PER
                 (UTC) (F)     (DEG/KT/KT) (MB)    (FT/S)
W MID LAKE BUOY  0550   62 56  230/  6/  8 1010.6F   1
DEVILS ISLAND    0600   68     190/  4/  5 1011.0S
PORT WING        0340   67     110/  5/  6 1011.5
SAXON HARBOR     0530   76     190/  4/  8 1011.5S
$$

LMZ867-665-643>646-250700-
LAKE MICHIGAN

STATION/POSITION TIME  TEMP    WIND        PRES    WAVE
                       AIR SEA DI



USA.gov is the U.S. government's official web portal to all federal, state and local government web resources and services.